Location: Unnamed
(42.1164°N, 2.7652°E)
Time: 21:25:43
(UTC+02:00)

ISS - Pass Details

Date: 11 May 2021
Orbit: 417 x 422 km, 51.6° (Epoch: 14 June)

Event Time Altitude Azimuth Distance (km) Brightness Sun altitude
Exits shadow 03:35:53 10° 319° (NW) 1,512 -0.7 -24.8°
Reaches altitude 10° 03:35:54 10° 319° (NW) 1,508 -0.7 -24.8°
Maximum altitude 03:38:06 16° 360° (N) 1,190 -0.8 -24.6°
Drops below altitude 10° 03:40:19 10° 41° (NE) 1,510 0.1 -24.4°
Sets 03:43:01 0° 64° (ENE) 2,375 1.0 -24.1°
